WA2GUG Weather Reports


Display with metric or nautical units.
time (UTC)temp
F
wind
direction
speed
MPH
gust
MPH
rain 1hr
in
rain 24hr
in
rain mn
in
humidity
%
barometer
mb
20260902164201 0 265 0.0 2.0 0.00 0.00 0.00 99 1013.2
20260902163701 0 271 0.0 3.0 0.00 0.00 0.00 99 1013.2
20260902163201 0 285 0.0 3.0 0.00 0.00 0.00 99 1014.0
20260902162701 0 230 0.0 4.0 0.00 0.00 0.00 99 1014.0
20260902162201 0 270 1.0 4.0 0.00 0.00 0.00 99 1013.2
20260902161701 0 229 0.0 3.0 0.00 0.00 0.00 99 1014.0
20260902161201 0 271 0.0 7.0 0.00 0.00 0.00 99 1014.0
20260902160701 0 274 1.0 7.0 0.00 0.00 0.00 99 1014.0
20260902160201 0 278 0.0 5.0 0.00 0.00 0.00 99 1014.0
20260902155701 0 288 1.0 5.0 0.00 0.00 0.00 99 1013.2
20260902155201 0 89 0.0 5.0 0.00 0.00 0.00 99 1014.0
20260902154701 0 270 0.0 5.0 0.00 0.00 0.00 99 1013.2
20260902154201 0 270 0.0 4.0 0.00 0.00 0.00 99 1014.0
20260902153701 0 277 0.0 3.0 0.00 0.00 0.00 99 1013.2
20260902153201 0 274 0.0 3.0 0.00 0.00 0.00 99 1013.2
20260902152701 0 176 0.0 2.0 0.00 0.00 0.00 99 1013.2
20260902152201 0 281 0.0 0.0 0.00 0.00 0.00 99 1014.0
20260902151701 0 269 0.0 0.0 0.00 0.00 0.00 99 1013.2
20260902151201 0 267 0.0 0.0 0.00 0.00 0.00 99 1013.2
20260902150701 0 138 0.0 0.0 0.00 0.00 0.00 99 1013.2
20260902150201 0 230 0.0 0.0 0.00 0.00 0.00 99 1014.0
20260902145701 0 270 0.0 1.0 0.00 0.00 0.00 99 1014.0
20260902145201 0 271 0.0 1.0 0.00 0.00 0.00 99 1014.0
20260902144701 0 277 0.0 0.0 0.00 0.00 0.00 99 1013.2
20260902144201 0 269 0.0 2.0 0.00 0.00 0.00 99 1014.0
20260902143701 0 270 0.0 4.0 0.00 0.00 0.00 99 1013.2
20260902143201 0 271 0.0 4.0 0.00 0.00 0.00 99 1013.2
20260902142701 0 280 0.0 0.0 0.00 0.00 0.00 99 1013.2
20260902142201 0 271 0.0 5.0 0.00 0.00 0.00 99 1014.0
20260902141701 0 358 1.0 5.0 0.00 0.00 0.00 99 1013.2
20260902141201 0 276 0.0 3.0 0.00 0.00 0.00 99 1014.0
20260902140701 0 270 0.0 1.0 0.00 0.00 0.00 99 1014.0
20260902140201 0 267 0.0 5.0 0.00 0.00 0.00 99 1013.2
20260902135701 0 280 1.0 5.0 0.00 0.00 0.00 99 1013.2
20260902135201 0 274 1.0 4.0 0.00 0.00 0.00 99 1013.2
20260902134701 0 269 0.0 4.0 0.00 0.00 0.00 99 1014.0
20260902134201 0 299 0.0 4.0 0.00 0.00 0.00 99 1014.0
20260902133701 0 42 0.0 3.0 0.00 0.00 0.00 99 1013.2
20260902133201 0 265 0.0 0.0 0.00 0.00 0.00 99 1014.0
20260902132701 0 94 0.0 0.0 0.00 0.00 0.00 99 1013.2
20260902132201 0 265 0.0 0.0 0.00 0.00 0.00 99 1014.0
20260902131701 0 238 0.0 3.0 0.00 0.00 0.00 99 1014.0
20260902131201 0 265 0.0 3.0 0.00 0.00 0.00 99 1013.2
20260902130701 0 272 0.0 2.0 0.00 0.00 0.00 99 1013.2
20260902130201 0 136 0.0 3.0 0.00 0.00 0.00 99 1013.2
20260902125701 0 268 1.0 3.0 0.00 0.00 0.00 99 1013.2
20260902125201 0 231 0.0 3.0 0.00 0.00 0.00 99 1013.2
20260902124701 0 279 0.0 3.0 0.00 0.00 0.00 99 1014.0
20260902124201 0 175 0.0 3.0 0.00 0.00 0.00 99 1013.2
20260902123701 0 136 0.0 3.0 0.00 0.00 0.00 99 1013.2
20260902123201 0 268 0.0 3.0 0.00 0.00 0.00 99 1013.0
20260902122700 0 257 0.0 2.0 0.00 0.00 0.00 99 1013.0
20260902122201 0 235 0.0 3.0 0.00 0.00 0.00 99 1013.1
20260902121701 0 85 0.0 3.0 0.00 0.00 0.00 99 1013.1
20260902121200 0 249 0.0 3.0 0.00 0.00 0.00 99 1013.0
20260902120701 0 319 0.0 1.0 0.00 0.00 0.00 99 1013.0
20260902120200 0 96 0.0 1.0 0.00 0.00 0.00 99 1013.0
20260902115700 0 246 0.0 0.0 0.00 0.00 0.00 99 1013.0
20260902115200 0 100 0.0 3.0 0.00 0.00 0.00 99 1013.0
20260902114700 0 278 0.0 3.0 0.00 0.00 0.00 99 1013.0
20260902114200 0 269 0.0 3.0 0.00 0.00 0.00 99 1013.0
20260902113700 0 304 0.0 3.0 0.00 0.00 0.00 99 1013.1
20260902113200 0 230 0.0 2.0 0.00 0.00 0.00 99 1013.1
20260902112700 0 271 0.0 3.0 0.00 0.00 0.00 99 1013.0
20260902112200 0 225 0.0 3.0 0.00 0.00 0.00 99 1013.0
20260902111701 0 81 0.0 2.0 0.00 0.00 0.00 99 1013.1
20260902111200 0 200 0.0 0.0 0.00 0.00 0.00 99 1013.2
20260902110700 0 203 0.0 0.0 0.00 0.00 0.00 99 1014.0
20260902110200 0 125 0.0 3.0 0.00 0.00 0.00 99 1014.0
20260902105700 0 86 0.0 3.0 0.00 0.00 0.00 99 1014.0
20260902105200 0 263 0.0 0.0 0.00 0.00 0.00 99 1014.0
20260902104700 0 244 0.0 2.0 0.00 0.00 0.00 99 1014.0
20260902104200 0 52 0.0 2.0 0.00 0.00 0.00 99 1013.2
20260902103700 0 278 0.0 0.0 0.00 0.00 0.00 99 1014.0
20260902103200 0 264 0.0 0.0 0.00 0.00 0.00 99 1013.1
20260902102700 0 219 0.0 0.0 0.00 0.00 0.00 99 1013.0
20260902102200 0 274 0.0 0.0 0.00 0.00 0.00 99 1013.0
20260902101701 0 156 0.0 0.0 0.00 0.00 0.00 99 1013.0
20260902101200 0 248 0.0 0.0 0.00 0.00 0.00 99 1013.0
20260902100700 0 131 0.0 0.0 0.00 0.00 0.00 99 1013.0
20260902100200 0 223 0.0 0.0 0.00 0.00 0.00 99 1013.0
20260902095700 0 239 0.0 0.0 0.00 0.00 0.00 99 1013.0
20260902095200 0 200 0.0 0.0 0.00 0.00 0.00 99 1013.0
20260902094700 0 204 0.0 0.0 0.00 0.00 0.00 99 1013.0
20260902094200 0 168 0.0 0.0 0.00 0.00 0.00 99 1013.0
20260902093700 0 200 0.0 0.0 0.00 0.00 0.00 99 1013.0
20260902093200 0 218 0.0 0.0 0.00 0.00 0.00 99 1013.0
20260902092700 0 238 0.0 0.0 0.00 0.00 0.00 99 1013.0
20260902092200 0 207 0.0 0.0 0.00 0.00 0.00 99 1013.0
20260902091700 0 220 0.0 0.0 0.00 0.00 0.00 99 1013.0
20260902091200 0 221 0.0 0.0 0.00 0.00 0.00 99 1013.0
20260902090700 0 248 0.0 0.0 0.00 0.00 0.00 99 1013.0
20260902090200 0 267 0.0 0.0 0.00 0.00 0.00 99 1012.2
20260902085700 0 249 0.0 0.0 0.00 0.00 0.00 99 1013.0
20260902085200 0 251 0.0 0.0 0.00 0.00 0.00 99 1012.2
20260902084700 0 93 0.0 0.0 0.00 0.00 0.00 99 1013.0
20260902084200 0 280 0.0 0.0 0.00 0.00 0.00 99 1013.0
20260902083700 0 279 0.0 0.0 0.00 0.00 0.00 99 1013.0
20260902083200 0 120 0.0 0.0 0.00 0.00 0.00 99 1012.2
20260902082700 0 252 0.0 0.0 0.00 0.00 0.00 99 1013.0
20260902082200 0 207 0.0 0.0 0.00 0.00 0.00 99 1012.2
20260902081700 0 209 0.0 0.0 0.00 0.00 0.00 99 1013.0
20260902081200 0 253 0.0 0.0 0.00 0.00 0.00 99 1012.2
20260902080700 0 261 0.0 0.0 0.00 0.00 0.00 99 1013.0
20260902080200 0 180 0.0 0.0 0.00 0.00 0.00 99 1012.2
20260902075700 0 267 0.0 0.0 0.00 0.00 0.00 99 1012.2
20260902075200 0 237 0.0 0.0 0.00 0.00 0.00 99 1012.2
20260902074700 0 239 0.0 0.0 0.00 0.00 0.00 99 1013.0
20260902074200 0 167 0.0 0.0 0.00 0.00 0.00 99 1012.2
20260902073700 0 239 0.0 0.0 0.00 0.00 0.00 99 1012.2
20260902073200 0 252 0.0 0.0 0.00 0.00 0.00 99 1012.2
20260902072700 0 105 0.0 0.0 0.00 0.00 0.00 99 1013.0
20260902072200 0 244 0.0 0.0 0.00 0.00 0.00 99 1012.2
20260902071700 0 281 0.0 0.0 0.00 0.00 0.00 99 1013.0
20260902071200 0 282 0.0 0.0 0.00 0.00 0.00 99 1013.0
20260902070700 0 235 0.0 0.0 0.00 0.00 0.00 99 1013.0
20260902070200 0 271 0.0 0.0 0.00 0.00 0.00 99 1012.2
20260902065200 0 263 0.0 0.0 0.00 0.00 0.00 99 1012.2
20260902064700 0 230 0.0 0.0 0.00 0.00 0.00 99 1013.0
20260902064200 0 152 0.0 1.0 0.00 0.00 0.00 99 1012.2
20260902063700 0 270 0.0 1.0 0.00 0.00 0.00 99 1013.0
20260902063200 0 310 0.0 0.0 0.00 0.00 0.00 99 1012.2
20260902062700 0 257 0.0 0.0 0.00 0.00 0.00 99 1013.0
20260902062200 0 262 0.0 0.0 0.00 0.00 0.00 99 1012.2
20260902061700 0 233 0.0 0.0 0.00 0.00 0.00 99 1013.0
20260902061200 0 228 0.0 4.0 0.00 0.00 0.00 99 1012.2
20260902060700 0 140 0.0 4.0 0.00 0.00 0.00 99 1013.0
20260902060200 0 241 0.0 0.0 0.00 0.00 0.00 99 1012.2
20260902055700 0 263 0.0 0.0 0.00 0.00 0.00 99 1012.2
20260902055200 0 124 0.0 0.0 0.00 0.00 0.00 99 1012.2
20260902054700 0 111 0.0 0.0 0.00 0.00 0.00 99 1013.0
20260902054200 0 254 0.0 0.0 0.00 0.00 0.00 99 1012.2
20260902053700 0 145 0.0 0.0 0.00 0.00 0.00 99 1013.0
20260902053200 0 127 0.0 3.0 0.00 0.00 0.00 99 1012.2
20260902052700 0 157 0.0 3.0 0.00 0.00 0.00 99 1013.0
20260902052200 0 131 0.0 1.0 0.00 0.00 0.00 99 1012.2
20260902051700 0 206 0.0 1.0 0.00 0.00 0.00 99 1013.0
20260902051200 0 45 0.0 2.0 0.00 0.00 0.00 99 1012.2
20260902050700 0 170 0.0 2.0 0.00 0.00 0.00 99 1013.0
20260902050200 0 152 0.0 0.0 0.00 0.00 0.00 99 1012.2
20260902045700 0 166 0.0 2.0 0.00 0.00 0.00 99 1012.2
20260902045200 0 81 0.0 2.0 0.00 0.00 0.00 99 1012.1
20260902044700 0 144 0.0 2.0 0.00 0.00 0.00 99 1012.1
20260902044200 0 117 0.0 2.0 0.00 0.00 0.00 99 1012.1
20260902043700 0 179 0.0 2.0 0.00 0.00 0.00 99 1012.1
20260902043200 0 172 0.0 1.0 0.00 0.00 0.00 99 1012.1
20260902042700 0 262 0.0 1.0 0.00 0.00 0.00 99 1012.0
20260902042200 0 223 0.0 1.0 0.00 0.00 0.00 99 1012.0
20260902041700 0 238 0.0 0.0 0.00 0.00 0.00 99 1012.0
20260902041200 0 268 0.0 0.0 0.00 0.00 0.00 99 1012.0
20260902040700 0 206 0.0 0.0 0.00 0.00 0.00 99 1012.0
20260902040200 0 198 0.0 0.0 0.00 0.00 0.00 99 1012.0
20260902035700 0 235 0.0 0.0 0.00 0.00 0.00 99 1012.0
20260902035200 0 267 0.0 0.0 0.00 0.00 0.00 99 1012.0
20260902034700 0 192 0.0 0.0 0.00 0.00 0.00 99 1012.0
20260902034200 0 178 0.0 0.0 0.00 0.00 0.00 99 1012.0
20260902033700 0 194 0.0 0.0 0.00 0.00 0.00 99 1012.0
20260902033200 0 229 0.0 0.0 0.00 0.00 0.00 99 1012.0
20260902032700 0 260 0.0 0.0 0.00 0.00 0.00 99 1012.0
20260902032200 0 175 0.0 0.0 0.00 0.00 0.00 99 1012.0
20260902031700 0 221 0.0 0.0 0.00 0.00 0.00 99 1012.0
20260902031200 0 205 0.0 0.0 0.00 0.00 0.00 99 1012.0
20260902030700 0 270 0.0 0.0 0.00 0.00 0.00 99 1012.0
20260902030200 0 273 0.0 0.0 0.00 0.00 0.00 99 1012.0
20260902025700 0 285 0.0 0.0 0.00 0.00 0.00 99 1012.0
20260902025200 0 137 0.0 0.0 0.00 0.00 0.00 99 1012.0
20260902024700 0 135 0.0 0.0 0.00 0.00 0.00 99 1012.0
20260902024200 0 135 0.0 0.0 0.00 0.00 0.00 99 1012.0
20260902023700 0 127 0.0 0.0 0.00 0.00 0.00 99 1012.0
20260902023200 0 270 0.0 0.0 0.00 0.00 0.00 99 1012.0
20260902022700 0 273 0.0 0.0 0.00 0.00 0.00 99 1012.0
20260902022200 0 267 0.0 0.0 0.00 0.00 0.00 99 1012.0
20260902021700 0 293 0.0 0.0 0.00 0.00 0.00 99 1012.0
20260902021200 0 285 0.0 0.0 0.00 0.00 0.00 99 1012.0
20260902020700 0 205 0.0 0.0 0.00 0.00 0.00 99 1012.0
20260902020200 0 250 0.0 0.0 0.00 0.00 0.00 99 1012.0
20260902015700 0 270 0.0 0.0 0.00 0.00 0.00 99 1012.0
20260902015200 0 232 0.0 0.0 0.00 0.00 0.00 99 1012.0
20260902014700 0 181 0.0 0.0 0.00 0.00 0.00 99 1012.0
20260902014200 0 178 0.0 0.0 0.00 0.00 0.00 99 1012.0
20260902013700 0 195 0.0 0.0 0.00 0.00 0.00 99 1012.0
20260902013200 0 270 0.0 0.0 0.00 0.00 0.00 99 1012.0
20260902012700 0 203 0.0 0.0 0.00 0.00 0.00 99 1012.0
20260902012200 0 137 0.0 0.0 0.00 0.00 0.00 99 1012.0
20260902011700 0 178 0.0 0.0 0.00 0.00 0.00 99 1011.2
20260902011200 0 263 0.0 0.0 0.00 0.00 0.00 99 1012.0
20260902010700 0 295 0.0 0.0 0.00 0.00 0.00 99 1011.2
20260902010200 0 286 0.0 0.0 0.00 0.00 0.00 99 1012.0
20260902005700 0 253 0.0 0.0 0.00 0.00 0.00 99 1011.2
20260902005200 0 266 0.0 0.0 0.00 0.00 0.00 99 1012.0
20260902004700 0 258 0.0 0.0 0.00 0.00 0.00 99 1011.2
20260902004200 0 185 0.0 0.0 0.00 0.00 0.00 99 1011.2
20260902003700 0 260 0.0 0.0 0.00 0.00 0.00 99 1011.1
20260902003200 0 234 0.0 1.0 0.00 0.00 0.00 99 1011.0
20260902002700 0 231 0.0 1.0 0.00 0.00 0.00 99 1011.0
20260902002200 0 223 0.0 0.0 0.00 0.00 0.00 99 1011.0
20260902001700 0 252 0.0 0.0 0.00 0.00 0.00 99 1011.0
20260902001200 0 255 0.0 0.0 0.00 0.00 0.00 99 1011.0
20260902000700 0 274 0.0 0.0 0.00 0.00 0.00 99 1011.0
20260902000200 0 166 0.0 0.0 0.00 0.00 0.00 99 1011.0
20260901235700 0 219 0.0 0.0 0.00 0.00 0.00 99 1010.2
20260901235200 0 222 0.0 0.0 0.00 0.00 0.00 99 1011.0
20260901234700 0 247 0.0 0.0 0.00 0.00 0.00 99 1011.0
20260901234200 0 235 0.0 0.0 0.00 0.00 0.00 99 1011.0
20260901233700 0 225 0.0 0.0 0.00 0.00 0.00 99 1011.0
20260901233200 0 225 0.0 0.0 0.00 0.00 0.00 99 1011.0
20260901232700 0 244 0.0 0.0 0.00 0.00 0.00 99 1011.0
20260901232200 0 240 0.0 0.0 0.00 0.00 0.00 99 1011.0
20260901231700 0 225 0.0 0.0 0.00 0.00 0.00 99 1010.2
20260901231200 0 225 0.0 0.0 0.00 0.00 0.00 99 1011.0
20260901230700 0 225 0.0 0.0 0.00 0.00 0.00 99 1011.0
20260901230200 0 225 0.0 0.0 0.00 0.00 0.00 99 1011.0
20260901225700 0 225 0.0 0.0 0.00 0.00 0.00 99 1011.0
20260901225200 0 225 0.0 0.0 0.00 0.00 0.00 99 1011.0
20260901224700 0 225 0.0 0.0 0.00 0.00 0.00 99 1011.0
20260901224200 0 225 0.0 0.0 0.00 0.00 0.00 99 1011.0
20260901223700 0 225 0.0 0.0 0.00 0.00 0.00 99 1011.0
20260901223200 0 263 0.0 0.0 0.00 0.00 0.00 99 1011.0
20260901222700 0 296 0.0 0.0 0.00 0.00 0.00 99 1011.0
20260901222200 0 298 0.0 0.0 0.00 0.00 0.00 99 1011.0
20260901221700 0 292 0.0 0.0 0.00 0.00 0.00 99 1011.0
20260901221200 0 292 0.0 0.0 0.00 0.00 0.00 99 1011.0
20260901220700 0 292 0.0 0.0 0.00 0.00 0.00 99 1011.0
20260901220200 0 291 0.0 0.0 0.00 0.00 0.00 99 1011.0
20260901215700 0 289 0.0 0.0 0.00 0.00 0.00 99 1011.0
20260901215200 0 297 0.0 0.0 0.00 0.00 0.00 99 1011.0
20260901214700 0 314 0.0 0.0 0.00 0.00 0.00 99 1011.0
20260901214159 0 274 0.0 0.0 0.00 0.00 0.00 99 1011.0
20260901213700 0 270 0.0 0.0 0.00 0.00 0.00 99 1011.0
20260901213200 0 288 0.0 0.0 0.00 0.00 0.00 99 1011.0
20260901212700 0 292 0.0 0.0 0.00 0.00 0.00 99 1011.0
20260901212159 0 256 0.0 0.0 0.00 0.00 0.00 99 1011.0
20260901211700 0 247 0.0 0.0 0.00 0.00 0.00 99 1011.0
20260901211200 0 247 0.0 0.0 0.00 0.00 0.00 99 1011.0
20260901210659 0 141 0.0 0.0 0.00 0.00 0.00 99 1011.0
20260901210159 0 135 0.0 0.0 0.00 0.00 0.00 99 1011.0
20260901205659 0 135 0.0 0.0 0.00 0.00 0.00 99 1010.2
20260901205159 0 114 0.0 0.0 0.00 0.00 0.00 99 1011.0
20260901204659 0 112 0.0 0.0 0.00 0.00 0.00 99 1010.2
20260901204159 0 315 0.0 0.0 0.00 0.00 0.00 99 1010.2
20260901203659 0 315 0.0 0.0 0.00 0.00 0.00 99 1010.2
20260901203159 0 315 0.0 0.0 0.00 0.00 0.00 99 1011.0
20260901202659 0 315 0.0 0.0 0.00 0.00 0.00 99 1010.2
20260901202159 0 325 0.0 0.0 0.00 0.00 0.00 99 1011.0
20260901201700 0 337 0.0 0.0 0.00 0.00 0.00 99 1010.2
20260901201159 0 337 0.0 0.0 0.00 0.00 0.00 99 1011.0
20260901200659 0 337 0.0 0.0 0.00 0.00 0.00 99 1010.2
20260901200159 0 354 0.0 0.0 0.00 0.00 0.00 99 1010.2
20260901195659 0 59 0.0 0.0 0.00 0.00 0.00 99 1010.2
20260901195159 0 84 0.0 0.0 0.00 0.00 0.00 99 1011.0
20260901194659 0 7 0.0 0.0 0.00 0.00 0.00 99 1010.2
20260901194159 0 34 0.0 0.0 0.00 0.00 0.00 99 1010.2
20260901193659 0 339 0.0 0.0 0.00 0.00 0.00 99 1011.0
20260901193159 0 249 0.0 0.0 0.00 0.00 0.00 99 1010.2
20260901192659 0 205 0.0 0.0 0.00 0.00 0.00 99 1010.1
20260901192159 0 142 0.0 0.0 0.00 0.00 0.00 99 1010.1
20260901191659 0 24 0.0 0.0 0.00 0.00 0.00 99 1010.1
20260901191159 0 136 0.0 0.0 0.00 0.00 0.00 99 1010.0
20260901190659 0 148 0.0 0.0 0.00 0.00 0.00 99 1010.0
20260901190159 0 106 0.0 0.0 0.00 0.00 0.00 99 1010.0
20260901185659 0 172 0.0 0.0 0.00 0.00 0.00 99 1010.0
20260901185159 0 180 0.0 0.0 0.00 0.00 0.00 99 1010.0
20260901184659 0 150 0.0 0.0 0.00 0.00 0.00 99 1010.0
20260901184159 0 86 0.0 0.0 0.00 0.00 0.00 99 1010.0
20260901183659 0 114 0.0 0.0 0.00 0.00 0.00 99 1010.0
20260901183159 0 145 0.0 0.0 0.00 0.00 0.00 99 1010.0
20260901182659 0 112 0.0 0.0 0.00 0.00 0.00 99 1010.0
20260901182159 0 120 0.0 0.0 0.00 0.00 0.00 99 1010.0
20260901181659 0 115 0.0 0.0 0.00 0.00 0.00 99 1010.0
20260901181159 0 165 0.0 0.0 0.00 0.00 0.00 99 1010.0
20260901180659 0 144 0.0 2.0 0.00 0.00 0.00 99 1010.0
20260901180159 0 167 0.0 2.0 0.00 0.00 0.00 99 1010.0
20260901175659 0 173 0.0 0.0 0.00 0.00 0.00 99 1010.0
20260901175159 0 165 0.0 0.0 0.00 0.00 0.00 99 1010.0
20260901174659 0 147 0.0 0.0 0.00 0.00 0.00 99 1010.0
20260901174159 0 177 0.0 0.0 0.00 0.00 0.00 99 1010.0
20260901173659 0 177 0.0 0.0 0.00 0.00 0.00 99 1010.0
20260901173159 0 135 0.0 2.0 0.00 0.00 0.00 99 1010.0
20260901172659 0 135 0.0 3.0 0.00 0.00 0.00 99 1010.0
20260901172159 0 146 1.0 3.0 0.00 0.00 0.00 99 1010.0
20260901171659 0 125 0.0 3.0 0.00 0.00 0.00 99 1010.0
20260901171159 0 202 0.0 3.0 0.00 0.00 0.00 99 1010.0
20260901170659 0 184 0.0 3.0 0.00 0.00 0.00 99 1010.0
20260901170159 0 153 1.0 3.0 0.00 0.00 0.00 99 1010.0
20260901165659 0 163 0.0 4.0 0.00 0.00 0.00 99 1010.0
20260901165159 0 139 1.0 4.0 0.00 0.00 0.00 99 1010.0
20260901164659 0 165 0.0 2.0 0.00 0.00 0.00 99 1010.0